TimePST,TemperatureF,Dew PointF,Humidity,Sea Level PressureIn,VisibilityMPH,Wind Direction,Wind SpeedMPH,Gust SpeedMPH,PrecipitationIn,Events,Conditions,WindDirDegrees,DateUTC
12:51 AM,59.0,57.2,94,30.06,1.5,East,6.9,-,N/A,Fog,Patches of Fog,90,2012-11-22 08:51:00
12:53 AM,59.0,57.0,93,30.05,1.5,East,5.8,-,N/A,Fog,Patches of Fog,90,2012-11-22 08:53:00
1:53 AM,58.6,57.0,94,30.06,1.2,East,4.6,-,N/A,Fog,Patches of Fog,80,2012-11-22 09:53:00
2:53 AM,57.0,57.0,100,30.06,3.0,ENE,4.6,-,N/A,Fog,Patches of Fog,70,2012-11-22 10:53:00
3:53 AM,57.4,55.9,95,30.05,3.0,East,4.6,-,N/A,Fog,Patches of Fog,80,2012-11-22 11:53:00
4:49 AM,57.2,55.4,94,30.06,0.5,ENE,6.9,-,N/A,Fog,Fog,60,2012-11-22 12:49:00
4:53 AM,56.7,55.0,94,30.06,0.2,ENE,5.8,-,N/A,Fog,Fog,70,2012-11-22 12:53:00
5:53 AM,54.7,54.7,100,30.07,0.2,NE,8.1,-,N/A,Fog,Fog,50,2012-11-22 13:53:00
6:53 AM,54.7,54.7,100,30.09,0.1,ENE,5.8,-,N/A,Fog,Fog,60,2012-11-22 14:53:00
7:53 AM,54.9,54.0,97,30.10,0.1,ESE,4.6,-,N/A,Fog,Fog,110,2012-11-22 15:53:00
8:34 AM,55.4,53.6,94,30.12,0.5,ESE,3.5,-,N/A,Fog,Fog,120,2012-11-22 16:34:00
8:53 AM,59.2,58.1,96,30.12,0.8,Calm,Calm,-,N/A,Fog,Patches of Fog,0,2012-11-22 16:53:00
9:16 AM,60.8,59.0,94,30.12,2.5,Calm,Calm,-,N/A,,Scattered Clouds,0,2012-11-22 17:16:00
9:34 AM,60.8,59.0,94,30.12,3.0,ESE,3.5,-,N/A,,Partly Cloudy,120,2012-11-22 17:34:00
9:53 AM,62.1,55.0,78,30.12,4.0,Calm,Calm,-,N/A,,Haze,0,2012-11-22 17:53:00
10:53 AM,66.0,54.0,65,30.10,5.0,Calm,Calm,-,N/A,,Haze,0,2012-11-22 18:53:00
11:53 AM,66.0,55.9,70,30.08,5.0,West,10.4,-,N/A,,Haze,270,2012-11-22 19:53:00
12:53 PM,64.9,55.0,70,30.06,7.0,West,9.2,-,N/A,,Clear,260,2012-11-22 20:53:00
1:53 PM,64.0,55.9,75,30.05,7.0,West,9.2,-,N/A,,Clear,270,2012-11-22 21:53:00
2:36 PM,64.4,55.4,73,30.05,8.0,West,11.5,-,N/A,,Partly Cloudy,260,2012-11-22 22:36:00
2:53 PM,63.0,57.0,81,30.05,8.0,West,10.4,-,N/A,,Scattered Clouds,270,2012-11-22 22:53:00
3:53 PM,61.0,55.9,83,30.06,6.0,West,10.4,-,N/A,,Haze,270,2012-11-22 23:53:00
4:53 PM,60.1,55.9,86,30.06,4.0,WSW,9.2,-,N/A,,Scattered Clouds,250,2012-11-23 00:53:00
5:15 PM,60.8,55.4,82,30.07,5.0,West,8.1,-,N/A,,Mostly Cloudy,260,2012-11-23 01:15:00
5:30 PM,60.8,55.4,82,30.07,5.0,West,8.1,-,N/A,,Scattered Clouds,270,2012-11-23 01:30:00
5:53 PM,60.1,55.9,86,30.08,5.0,WSW,6.9,-,N/A,,Scattered Clouds,250,2012-11-23 01:53:00
6:53 PM,59.5,57.0,91,30.09,4.0,West,4.6,-,N/A,,Mostly Cloudy,260,2012-11-23 02:53:00
7:28 PM,59.0,57.2,94,30.10,4.0,WSW,3.5,-,N/A,,Partly Cloudy,250,2012-11-23 03:28:00
7:53 PM,59.2,57.0,93,30.10,4.0,Calm,Calm,-,N/A,,Partly Cloudy,0,2012-11-23 03:53:00
8:53 PM,58.6,57.0,94,30.11,4.0,Calm,Calm,-,N/A,,Partly Cloudy,0,2012-11-23 04:53:00
9:42 PM,57.2,55.4,94,30.12,2.0,Calm,Calm,-,N/A,,Scattered Clouds,0,2012-11-23 05:42:00
9:53 PM,57.2,55.9,96,30.12,2.0,Calm,Calm,-,N/A,,Scattered Clouds,0,2012-11-23 05:53:00
10:53 PM,58.3,55.9,92,30.13,2.5,Calm,Calm,-,N/A,,Scattered Clouds,0,2012-11-23 06:53:00
11:08 PM,57.2,55.4,94,30.13,0.2,Calm,Calm,-,N/A,Fog,Fog,0,2012-11-23 07:08:00
11:51 PM,57.2,55.4,94,30.13,0.2,Calm,Calm,-,N/A,Fog,Fog,0,2012-11-23 07:51:00
11:53 PM,57.2,55.4,94,30.12,0.2,Calm,Calm,-,N/A,Fog,Fog,0,2012-11-23 07:53:00